| time (UTC) | temp C | wind direction | speed KPH | gust KPH | rain 1hr cm | rain 24hr cm | rain mn cm | humidity % | barometer mb |
| 20260506191441 | 12 | 307 | 9.7 | 22.5 | 0.00 | 0.56 | 0.56 | 38 | 1011.9 |
| 20260506190937 | 12 | 295 | 11.3 | 19.3 | 0.00 | 0.56 | 0.56 | 39 | 1011.8 |
| 20260506190434 | 12 | 304 | 24.1 | 32.2 | 0.00 | 0.56 | 0.56 | 42 | 1011.9 |
| 20260506185931 | 12 | 320 | 14.5 | 30.6 | 0.00 | 0.56 | 0.56 | 36 | 1011.9 |
| 20260506185428 | 12 | 315 | 8.0 | 38.6 | 0.00 | 0.56 | 0.56 | 42 | 1012.1 |
| 20260506184925 | 12 | 327 | 12.9 | 20.9 | 0.00 | 0.56 | 0.56 | 37 | 1012.0 |
| 20260506184422 | 12 | 288 | 19.3 | 22.5 | 0.00 | 0.56 | 0.56 | 45 | 1011.9 |
| 20260506183919 | 12 | 247 | 11.3 | 19.3 | 0.00 | 0.56 | 0.56 | 40 | 1011.8 |
| 20260506183414 | 12 | 298 | 6.4 | 25.7 | 0.00 | 0.56 | 0.56 | 39 | 1011.7 |
| 20260506182912 | 12 | 315 | 12.9 | 22.5 | 0.00 | 0.56 | 0.56 | 40 | 1011.7 |
| 20260506182409 | 12 | 339 | 8.0 | 19.3 | 0.00 | 0.56 | 0.56 | 41 | 1011.7 |
| 20260506181907 | 11 | 324 | 14.5 | 24.1 | 0.00 | 0.56 | 0.56 | 44 | 1011.8 |
| 20260506181404 | 11 | 318 | 4.8 | 27.4 | 0.00 | 0.56 | 0.56 | 42 | 1012.1 |
| 20260506180901 | 12 | 314 | 9.7 | 30.6 | 0.00 | 0.56 | 0.56 | 43 | 1011.7 |
| 20260506180357 | 11 | 322 | 14.5 | 27.4 | 0.00 | 0.56 | 0.56 | 42 | 1012.0 |
| 20260506175854 | 12 | 296 | 12.9 | 29.0 | 0.00 | 0.56 | 0.56 | 39 | 1011.9 |
| 20260506175350 | 12 | 337 | 19.3 | 29.0 | 0.00 | 0.56 | 0.56 | 39 | 1012.2 |
| 20260506174847 | 12 | 295 | 17.7 | 30.6 | 0.00 | 0.56 | 0.56 | 40 | 1011.9 |
| 20260506174345 | 12 | 259 | 22.5 | 29.0 | 0.00 | 0.56 | 0.56 | 45 | 1012.0 |
| 20260506173843 | 12 | 333 | 25.7 | 27.4 | 0.00 | 0.56 | 0.56 | 40 | 1012.1 |
| 20260506173339 | 12 | 314 | 16.1 | 25.7 | 0.00 | 0.56 | 0.56 | 44 | 1012.0 |
| 20260506172836 | 11 | 287 | 8.0 | 19.3 | 0.00 | 0.56 | 0.56 | 45 | 1011.9 |
| 20260506172333 | 12 | 303 | 6.4 | 22.5 | 0.00 | 0.56 | 0.56 | 45 | 1012.1 |
| 20260506171830 | 12 | 290 | 4.8 | 20.9 | 0.00 | 0.56 | 0.56 | 41 | 1012.1 |
| 20260506171327 | 12 | 304 | 17.7 | 22.5 | 0.00 | 0.56 | 0.56 | 47 | 1012.2 |
| 20260506170825 | 12 | 301 | 14.5 | 25.7 | 0.00 | 0.56 | 0.56 | 42 | 1012.2 |
| 20260506170320 | 12 | 315 | 12.9 | 22.5 | 0.00 | 0.56 | 0.56 | 49 | 1012.2 |
| 20260506165820 | 12 | 318 | 17.7 | 27.4 | 0.00 | 0.56 | 0.56 | 39 | 1012.3 |
| 20260506165317 | 12 | 329 | 22.5 | 33.8 | 0.00 | 0.56 | 0.56 | 45 | 1012.1 |
| 20260506164813 | 12 | 320 | 27.4 | 27.4 | 0.00 | 0.56 | 0.56 | 45 | 1012.0 |
| 20260506164310 | 12 | 344 | 8.0 | 25.7 | 0.00 | 0.56 | 0.56 | 41 | 1012.0 |
| 20260506163807 | 12 | 319 | 11.3 | 25.7 | 0.00 | 0.56 | 0.56 | 43 | 1012.2 |
| 20260506163302 | 12 | 355 | 6.4 | 27.4 | 0.00 | 0.56 | 0.56 | 44 | 1012.3 |
| 20260506162758 | 12 | 348 | 16.1 | 29.0 | 0.00 | 0.56 | 0.56 | 43 | 1012.3 |
| 20260506162256 | 11 | 318 | 6.4 | 30.6 | 0.00 | 0.56 | 0.56 | 42 | 1012.0 |
| 20260506161753 | 11 | 38 | 3.2 | 12.9 | 0.00 | 0.56 | 0.56 | 45 | 1012.0 |
| 20260506161250 | 11 | 2 | 6.4 | 24.1 | 0.00 | 0.56 | 0.56 | 42 | 1012.0 |
| 20260506160748 | 11 | 347 | 8.0 | 14.5 | 0.00 | 0.56 | 0.56 | 48 | 1012.1 |
| 20260506160244 | 12 | 339 | 6.4 | 22.5 | 0.00 | 0.56 | 0.56 | 46 | 1012.1 |
| 20260506155743 | 11 | 330 | 8.0 | 27.4 | 0.00 | 0.56 | 0.56 | 44 | 1012.1 |
| 20260506155239 | 11 | 347 | 11.3 | 20.9 | 0.00 | 0.56 | 0.56 | 48 | 1012.2 |
| 20260506153347 | 11 | 13 | 4.8 | 16.1 | 0.00 | 0.56 | 0.56 | 48 | 1011.6 |
| 20260506152844 | 11 | 347 | 8.0 | 20.9 | 0.00 | 0.56 | 0.56 | 48 | 1011.5 |
| 20260506152341 | 11 | 335 | 11.3 | 27.4 | 0.00 | 0.56 | 0.56 | 55 | 1011.5 |
| 20260506151839 | 11 | 322 | 8.0 | 20.9 | 0.00 | 0.56 | 0.56 | 55 | 1011.5 |
| 20260506151335 | 11 | 356 | 9.7 | 20.9 | 0.00 | 0.56 | 0.56 | 54 | 1011.6 |
| 20260506150833 | 11 | 338 | 4.8 | 17.7 | 0.00 | 0.56 | 0.56 | 55 | 1011.7 |
| 20260506150329 | 11 | 321 | 16.1 | 19.3 | 0.00 | 0.56 | 0.56 | 53 | 1011.7 |
| 20260506145826 | 11 | 343 | 8.0 | 16.1 | 0.00 | 0.56 | 0.56 | 49 | 1011.6 |
| 20260506145323 | 11 | 318 | 16.1 | 20.9 | 0.00 | 0.56 | 0.56 | 56 | 1011.4 |
| 20260506144820 | 10 | 344 | 8.0 | 24.1 | 0.00 | 0.56 | 0.56 | 58 | 1011.5 |
| 20260506144317 | 10 | 333 | 16.1 | 22.5 | 0.00 | 0.56 | 0.56 | 55 | 1011.2 |
| 20260506143815 | 10 | 335 | 12.9 | 25.7 | 0.00 | 0.56 | 0.56 | 61 | 1011.1 |
| 20260506143312 | 10 | 343 | 14.5 | 25.7 | 0.00 | 0.56 | 0.56 | 59 | 1011.2 |
| 20260506142810 | 10 | 347 | 17.7 | 24.1 | 0.00 | 0.56 | 0.56 | 61 | 1011.1 |
| 20260506142307 | 10 | 329 | 24.1 | 33.8 | 0.00 | 0.56 | 0.56 | 61 | 1011.1 |
| 20260506141806 | 10 | 326 | 20.9 | 24.1 | 0.00 | 0.56 | 0.56 | 63 | 1011.0 |
| 20260506141303 | 10 | 327 | 17.7 | 24.1 | 0.00 | 0.56 | 0.56 | 60 | 1010.8 |
| 20260506140801 | 10 | 327 | 8.0 | 20.9 | 0.00 | 0.56 | 0.56 | 66 | 1011.0 |
| 20260506140258 | 9 | 353 | 11.3 | 19.3 | 0.00 | 0.56 | 0.56 | 66 | 1010.8 |
| 20260506135755 | 9 | 350 | 11.3 | 20.9 | 0.00 | 0.56 | 0.56 | 63 | 1010.9 |
| 20260506135251 | 8 | 295 | 6.4 | 19.3 | 0.00 | 0.56 | 0.56 | 70 | 1010.7 |
| 20260506134748 | 8 | 311 | 9.7 | 24.1 | 0.00 | 0.56 | 0.56 | 70 | 1010.9 |
| 20260506134244 | 8 | 323 | 9.7 | 19.3 | 0.00 | 0.56 | 0.56 | 72 | 1011.0 |
| 20260506133741 | 8 | 311 | 12.9 | 19.3 | 0.00 | 0.56 | 0.56 | 70 | 1010.9 |
| 20260506133238 | 8 | 327 | 12.9 | 20.9 | 0.00 | 0.56 | 0.56 | 69 | 1011.1 |
| 20260506132735 | 8 | 329 | 14.5 | 17.7 | 0.00 | 0.56 | 0.56 | 70 | 1010.8 |
| 20260506132232 | 8 | 328 | 14.5 | 17.7 | 0.00 | 0.56 | 0.56 | 73 | 1011.0 |
| 20260506131730 | 8 | 288 | 9.7 | 20.9 | 0.00 | 0.56 | 0.56 | 73 | 1010.9 |
| 20260506131226 | 8 | 317 | 11.3 | 24.1 | 0.00 | 0.56 | 0.56 | 75 | 1010.5 |
| 20260506130723 | 8 | 307 | 12.9 | 27.4 | 0.00 | 0.56 | 0.56 | 73 | 1010.5 |
| 20260506130220 | 8 | 304 | 3.2 | 19.3 | 0.00 | 0.56 | 0.56 | 75 | 1010.4 |
| 20260506125718 | 8 | 305 | 6.4 | 20.9 | 0.00 | 0.56 | 0.56 | 76 | 1010.4 |
| 20260506125215 | 7 | 314 | 9.7 | 16.1 | 0.00 | 0.56 | 0.56 | 77 | 1010.2 |
| 20260506124713 | 7 | 297 | 9.7 | 16.1 | 0.00 | 0.56 | 0.56 | 79 | 1010.2 |
| 20260506124211 | 7 | 316 | 16.1 | 19.3 | 0.00 | 0.56 | 0.56 | 80 | 1010.0 |
| 20260506123708 | 7 | 305 | 4.8 | 12.9 | 0.00 | 0.56 | 0.56 | 80 | 1010.3 |
| 20260506123207 | 7 | 277 | 11.3 | 20.9 | 0.00 | 0.56 | 0.56 | 80 | 1010.3 |
| 20260506122703 | 7 | 294 | 4.8 | 17.7 | 0.00 | 0.56 | 0.56 | 81 | 1010.1 |
| 20260506122201 | 7 | 287 | 4.8 | 17.7 | 0.00 | 0.56 | 0.56 | 81 | 1010.1 |
| 20260506121658 | 7 | 287 | 9.7 | 22.5 | 0.00 | 0.56 | 0.56 | 81 | 1010.0 |
| 20260506121154 | 7 | 305 | 6.4 | 17.7 | 0.00 | 0.56 | 0.56 | 82 | 1009.9 |
| 20260506120653 | 7 | 294 | 4.8 | 20.9 | 0.00 | 0.56 | 0.56 | 83 | 1010.0 |
| 20260506120150 | 7 | 299 | 3.2 | 16.1 | 0.00 | 0.56 | 0.56 | 83 | 1009.7 |
| 20260506115648 | 6 | 304 | 4.8 | 12.9 | 0.00 | 0.56 | 0.56 | 83 | 1009.3 |
| 20260506115146 | 6 | 305 | 8.0 | 12.9 | 0.00 | 0.56 | 0.56 | 83 | 1009.3 |
| 20260506114643 | 6 | 287 | 3.2 | 11.3 | 0.00 | 0.56 | 0.56 | 84 | 1009.8 |
| 20260506114141 | 6 | 312 | 4.8 | 11.3 | 0.00 | 0.56 | 0.56 | 84 | 1009.8 |
| 20260506113639 | 6 | 280 | 4.8 | 8.0 | 0.00 | 0.56 | 0.56 | 85 | 1009.3 |
| 20260506113136 | 6 | 276 | 4.8 | 12.9 | 0.00 | 0.56 | 0.56 | 85 | 1009.3 |
| 20260506112632 | 6 | 276 | 9.7 | 12.9 | 0.00 | 0.56 | 0.56 | 85 | 1009.5 |
| 20260506112130 | 6 | 288 | 4.8 | 8.0 | 0.00 | 0.56 | 0.56 | 86 | 1008.9 |
| 20260506111627 | 6 | 276 | 6.4 | 12.9 | 0.00 | 0.56 | 0.56 | 85 | 1009.0 |
| 20260506111125 | 6 | 267 | 8.0 | 12.9 | 0.00 | 0.56 | 0.56 | 86 | 1009.3 |
| 20260506110622 | 6 | 257 | 8.0 | 14.5 | 0.00 | 0.56 | 0.56 | 86 | 1009.3 |
| 20260506110120 | 6 | 253 | 6.4 | 11.3 | 0.00 | 0.56 | 0.56 | 86 | 1009.4 |
| 20260506105616 | 6 | 244 | 12.9 | 14.5 | 0.00 | 0.56 | 0.56 | 86 | 1009.2 |
| 20260506105113 | 6 | 255 | 8.0 | 11.3 | 0.00 | 0.56 | 0.56 | 87 | 1009.1 |
| 20260506104611 | 6 | 266 | 6.4 | 9.7 | 0.00 | 0.56 | 0.56 | 87 | 1009.2 |
| 20260506104108 | 6 | 261 | 4.8 | 14.5 | 0.00 | 0.56 | 0.56 | 87 | 1008.9 |
| 20260506103605 | 6 | 276 | 3.2 | 11.3 | 0.00 | 0.56 | 0.56 | 88 | 1008.7 |
| 20260506103102 | 6 | 279 | 3.2 | 11.3 | 0.00 | 0.56 | 0.56 | 88 | 1008.8 |
| 20260506102600 | 6 | 331 | 11.3 | 16.1 | 0.00 | 0.56 | 0.56 | 88 | 1008.7 |
| 20260506102057 | 6 | 293 | 8.0 | 12.9 | 0.00 | 0.56 | 0.56 | 88 | 1008.4 |
| 20260506101554 | 6 | 292 | 11.3 | 11.3 | 0.00 | 0.56 | 0.56 | 88 | 1008.4 |
| 20260506101051 | 6 | 291 | 4.8 | 11.3 | 0.00 | 0.56 | 0.56 | 88 | 1008.2 |
| 20260506100549 | 6 | 277 | 0.0 | 6.4 | 0.00 | 0.56 | 0.56 | 88 | 1008.1 |
| 20260506100047 | 6 | 298 | 3.2 | 9.7 | 0.00 | 0.56 | 0.56 | 88 | 1007.8 |
| 20260506095546 | 6 | 254 | 1.6 | 3.2 | 0.00 | 0.56 | 0.56 | 88 | 1007.9 |
| 20260506095042 | 6 | 272 | 3.2 | 4.8 | 0.00 | 0.56 | 0.56 | 88 | 1008.3 |
| 20260506094539 | 6 | 271 | 4.8 | 6.4 | 0.00 | 0.56 | 0.56 | 88 | 1008.3 |
| 20260506094037 | 6 | 202 | 0.0 | 3.2 | 0.00 | 0.56 | 0.56 | 88 | 1007.9 |
| 20260506093535 | 6 | 195 | 0.0 | 3.2 | 0.00 | 0.56 | 0.56 | 88 | 1008.1 |
| 20260506093032 | 6 | 185 | 0.0 | 6.4 | 0.00 | 0.56 | 0.56 | 88 | 1008.0 |
| 20260506092530 | 6 | 264 | 1.6 | 4.8 | 0.00 | 0.56 | 0.56 | 88 | 1008.2 |
| 20260506092027 | 6 | 269 | 0.0 | 6.4 | 0.00 | 0.56 | 0.56 | 88 | 1008.5 |
| 20260506091525 | 6 | 262 | 0.0 | 6.4 | 0.00 | 0.56 | 0.56 | 88 | 1008.5 |
| 20260506091022 | 6 | 291 | 3.2 | 8.0 | 0.00 | 0.56 | 0.56 | 88 | 1008.5 |
| 20260506090520 | 6 | 318 | 3.2 | 14.5 | 0.00 | 0.56 | 0.56 | 88 | 1008.6 |
| 20260506090016 | 6 | 299 | 9.7 | 11.3 | 0.00 | 0.56 | 0.56 | 89 | 1008.7 |
| 20260506085513 | 6 | 296 | 4.8 | 12.9 | 0.05 | 0.56 | 0.56 | 88 | 1008.3 |
| 20260506085009 | 6 | 335 | 8.0 | 9.7 | 0.05 | 0.56 | 0.56 | 88 | 1008.2 |
| 20260506084506 | 6 | 327 | 8.0 | 11.3 | 0.05 | 0.56 | 0.56 | 88 | 1008.0 |
| 20260506084002 | 6 | 346 | 3.2 | 6.4 | 0.13 | 0.56 | 0.56 | 88 | 1008.2 |
| 20260506083500 | 6 | 320 | 4.8 | 8.0 | 0.13 | 0.56 | 0.56 | 88 | 1008.4 |
| 20260506082957 | 6 | 330 | 3.2 | 9.7 | 0.00 | 0.53 | 0.53 | 88 | 1008.5 |
| 20260506082454 | 6 | 309 | 1.6 | 8.0 | 0.00 | 0.53 | 0.53 | 88 | 1008.5 |
| 20260506081949 | 6 | 308 | 1.6 | 8.0 | 0.00 | 0.53 | 0.53 | 88 | 1008.6 |
| 20260506081448 | 6 | 346 | 3.2 | 8.0 | 0.00 | 0.53 | 0.53 | 88 | 1008.3 |
| 20260506080945 | 6 | 323 | 6.4 | 9.7 | 0.00 | 0.53 | 0.53 | 88 | 1008.4 |
| 20260506080442 | 6 | 318 | 9.7 | 11.3 | 0.00 | 0.53 | 0.53 | 89 | 1008.3 |
| 20260506073426 | 6 | 48 | 0.0 | 4.8 | 0.05 | 0.51 | 0.51 | 88 | 1007.9 |
| 20260506072923 | 6 | 331 | 3.2 | 6.4 | 0.05 | 0.51 | 0.51 | 88 | 1008.1 |
| 20260506072420 | 6 | 0 | 3.2 | 4.8 | 0.13 | 0.51 | 0.51 | 88 | 1007.9 |
| 20260506071918 | 6 | 2 | 3.2 | 6.4 | 0.13 | 0.51 | 0.51 | 88 | 1008.1 |
| 20260506071416 | 6 | 336 | 4.8 | 8.0 | 0.13 | 0.48 | 0.48 | 88 | 1008.6 |
| 20260506070912 | 6 | 314 | 6.4 | 9.7 | 0.18 | 0.48 | 0.48 | 88 | 1008.8 |
| 20260506070409 | 6 | 342 | 4.8 | 9.7 | 0.05 | 0.46 | 0.46 | 88 | 1008.8 |
| 20260506062347 | 7 | 351 | 6.4 | 12.9 | 0.18 | 0.38 | 0.38 | 89 | 1008.1 |
| 20260506061842 | 7 | 319 | 6.4 | 14.5 | 0.13 | 0.36 | 0.36 | 89 | 1008.3 |
| 20260506061339 | 7 | 312 | 9.7 | 12.9 | 0.13 | 0.36 | 0.36 | 89 | 1008.5 |
| 20260506060837 | 7 | 330 | 8.0 | 12.9 | 0.13 | 0.33 | 0.33 | 89 | 1008.6 |
| 20260506060335 | 7 | 316 | 6.4 | 11.3 | 0.18 | 0.33 | 0.33 | 89 | 1008.5 |
| 20260506051307 | 7 | 317 | 4.8 | 12.9 | 0.23 | 0.15 | 0.15 | 89 | 1008.5 |
| 20260506050805 | 7 | 323 | 3.2 | 9.7 | 0.18 | 0.13 | 0.13 | 89 | 1008.7 |
| 20260506050302 | 7 | 320 | 6.4 | 12.9 | 0.13 | 0.10 | 0.10 | 89 | 1008.7 |
| 20260506044752 | 7 | 315 | 0.0 | 6.4 | 0.05 | 0.08 | 0.08 | 89 | 1008.2 |
| 20260506044250 | 7 | 334 | 3.2 | 6.4 | 0.05 | 0.05 | 0.05 | 89 | 1008.2 |
| 20260506043747 | 7 | 332 | 6.4 | 8.0 | 0.00 | 0.05 | 0.05 | 89 | 1008.2 |
| 20260506043244 | 7 | 291 | 3.2 | 6.4 | 0.05 | 0.05 | 0.05 | 89 | 1008.4 |
| 20260506042743 | 7 | 309 | 3.2 | 6.4 | 0.13 | 0.05 | 0.05 | 89 | 1008.4 |
| 20260506042241 | 7 | 272 | 3.2 | 4.8 | 0.13 | 0.05 | 0.05 | 89 | 1008.3 |
| 20260506041739 | 7 | 305 | 3.2 | 6.4 | 0.13 | 0.03 | 0.03 | 89 | 1008.3 |
| 20260506041236 | 7 | 335 | 4.8 | 8.0 | 0.13 | 0.03 | 0.03 | 89 | 1008.4 |
| 20260506040733 | 7 | 313 | 3.2 | 6.4 | 0.05 | 0.00 | 0.00 | 89 | 1008.4 |
| 20260506040231 | 7 | 299 | 1.6 | 4.8 | 0.13 | 0.00 | 0.00 | 89 | 1008.3 |
| 20260506035727 | 7 | 322 | 0.0 | 8.0 | 0.23 | 2.36 | 2.36 | 89 | 1008.3 |
| 20260506035224 | 7 | 273 | 1.6 | 8.0 | 0.23 | 2.31 | 2.31 | 89 | 1008.4 |
| 20260506034721 | 7 | 304 | 3.2 | 8.0 | 0.30 | 2.31 | 2.31 | 89 | 1008.6 |
| 20260506034218 | 7 | 13 | 1.6 | 9.7 | 0.23 | 2.29 | 2.29 | 89 | 1008.5 |
| 20260506033715 | 7 | 323 | 4.8 | 12.9 | 0.13 | 2.26 | 2.26 | 89 | 1008.2 |
| 20260506033212 | 8 | 330 | 9.7 | 12.9 | 0.13 | 2.24 | 2.24 | 89 | 1008.3 |
| 20260506032709 | 7 | 319 | 0.0 | 8.0 | 0.13 | 2.24 | 2.24 | 89 | 1008.3 |
| 20260506032206 | 8 | 283 | 0.0 | 6.4 | 0.13 | 2.21 | 2.21 | 89 | 1008.4 |
| 20260506031703 | 8 | 250 | 4.8 | 6.4 | 0.18 | 2.21 | 2.21 | 89 | 1008.5 |
| 20260506031200 | 8 | 235 | 3.2 | 4.8 | 0.18 | 2.21 | 2.21 | 89 | 1008.5 |
| 20260506030658 | 8 | 86 | 1.6 | 3.2 | 0.18 | 2.18 | 2.18 | 89 | 1008.6 |
| 20260506030155 | 8 | 239 | 1.6 | 3.2 | 0.36 | 2.16 | 2.16 | 89 | 1008.6 |
| 20260506025652 | 8 | 118 | 0.0 | 3.2 | 0.30 | 2.13 | 2.13 | 89 | 1008.5 |
| 20260506025148 | 8 | 189 | 0.0 | 3.2 | 0.30 | 2.11 | 2.11 | 89 | 1008.6 |
| 20260506024646 | 8 | 224 | 0.0 | 1.6 | 0.23 | 2.08 | 2.08 | 89 | 1008.5 |
| 20260506024142 | 8 | 130 | 0.0 | 3.2 | 0.36 | 2.06 | 2.06 | 89 | 1008.5 |
| 20260506023638 | 8 | 160 | 4.8 | 6.4 | 0.43 | 2.03 | 2.03 | 89 | 1008.5 |
| 20260506023136 | 8 | 170 | 3.2 | 4.8 | 0.43 | 2.01 | 2.01 | 89 | 1008.7 |
| 20260506022633 | 8 | 194 | 0.0 | 4.8 | 0.30 | 1.96 | 1.96 | 89 | 1008.8 |
| 20260506022130 | 8 | 184 | 3.2 | 4.8 | 0.30 | 1.93 | 1.93 | 89 | 1008.9 |
| 20260506021628 | 8 | 214 | 1.6 | 4.8 | 0.30 | 1.91 | 1.91 | 89 | 1008.9 |
| 20260506021125 | 8 | 134 | 0.0 | 3.2 | 0.30 | 1.88 | 1.88 | 89 | 1008.4 |
| 20260506020622 | 8 | 224 | 0.0 | 8.0 | 0.23 | 1.83 | 1.83 | 89 | 1008.7 |
| 20260506020120 | 8 | 255 | 4.8 | 6.4 | 0.23 | 1.83 | 1.83 | 89 | 1008.6 |
| 20260506015617 | 8 | 213 | 3.2 | 6.4 | 0.23 | 1.80 | 1.80 | 89 | 1008.5 |
| 20260506015114 | 8 | 345 | 0.0 | 8.0 | 0.30 | 1.78 | 1.78 | 89 | 1008.6 |
| 20260506014612 | 8 | 271 | 4.8 | 8.0 | 0.18 | 1.75 | 1.75 | 89 | 1008.7 |
| 20260506014106 | 8 | 258 | 1.6 | 6.4 | 0.18 | 1.73 | 1.73 | 89 | 1008.6 |
| 20260506013605 | 8 | 0 | 0.0 | 3.2 | 0.18 | 1.73 | 1.73 | 89 | 1008.4 |
| 20260506013102 | 8 | 336 | 4.8 | 6.4 | 0.18 | 1.70 | 1.70 | 89 | 1008.4 |
| 20260506012558 | 8 | 329 | 3.2 | 4.8 | 0.30 | 1.70 | 1.70 | 89 | 1008.3 |
| 20260506012055 | 8 | 19 | 0.0 | 3.2 | 0.30 | 1.68 | 1.68 | 89 | 1008.1 |
| 20260506011553 | 8 | 319 | 4.8 | 6.4 | 0.23 | 1.65 | 1.65 | 89 | 1008.3 |
| 20260506011048 | 8 | 212 | 0.0 | 1.6 | 0.23 | 1.63 | 1.63 | 89 | 1008.2 |
| 20260506010542 | 8 | 15 | 1.6 | 3.2 | 0.23 | 1.60 | 1.60 | 89 | 1008.2 |
| 20260506010038 | 8 | 40 | 0.0 | 3.2 | 0.23 | 1.57 | 1.57 | 89 | 1007.9 |
| 20260506005535 | 8 | 354 | 1.6 | 4.8 | 0.18 | 1.55 | 1.55 | 89 | 1008.1 |
| 20260506005031 | 8 | 331 | 0.0 | 4.8 | 0.13 | 1.55 | 1.55 | 89 | 1008.2 |
| 20260506004529 | 8 | 347 | 0.0 | 3.2 | 0.18 | 1.52 | 1.52 | 89 | 1008.0 |
| 20260506004025 | 8 | 65 | 0.0 | 3.2 | 0.18 | 1.50 | 1.50 | 88 | 1007.9 |
| 20260506003522 | 8 | 359 | 3.2 | 6.4 | 0.23 | 1.50 | 1.50 | 88 | 1007.7 |
| 20260506003018 | 8 | 1 | 1.6 | 4.8 | 0.18 | 1.47 | 1.47 | 89 | 1007.9 |
| 20260506002514 | 8 | 337 | 3.2 | 6.4 | 0.13 | 1.45 | 1.45 | 88 | 1007.9 |
| 20260506002010 | 8 | 21 | 3.2 | 4.8 | 0.05 | 1.45 | 1.45 | 89 | 1007.8 |
| 20260506001507 | 8 | 15 | 1.6 | 4.8 | 0.05 | 1.45 | 1.45 | 89 | 1008.0 |
| 20260506001004 | 8 | 48 | 0.0 | 3.2 | 0.13 | 1.42 | 1.42 | 89 | 1007.9 |
| 20260506000501 | 8 | 32 | 0.0 | 3.2 | 0.13 | 1.42 | 1.42 | 88 | 1007.9 |
| 20260505235958 | 8 | 52 | 0.0 | 3.2 | 0.13 | 1.42 | 1.42 | 88 | 1007.9 |
| 20260505235456 | 8 | 14 | 0.0 | 4.8 | 0.18 | 1.40 | 1.40 | 88 | 1007.8 |
| 20260505234953 | 8 | 350 | 4.8 | 6.4 | 0.13 | 1.37 | 1.37 | 88 | 1008.1 |
| 20260505234450 | 8 | 317 | 4.8 | 8.0 | 0.13 | 1.37 | 1.37 | 88 | 1008.1 |
| 20260505233947 | 8 | 327 | 0.0 | 6.4 | 0.13 | 1.37 | 1.37 | 88 | 1008.1 |
| 20260505233444 | 8 | 320 | 6.4 | 8.0 | 0.13 | 1.35 | 1.35 | 88 | 1008.1 |
| 20260505232942 | 8 | 310 | 3.2 | 8.0 | 0.13 | 1.35 | 1.35 | 88 | 1008.3 |
| 20260505232440 | 8 | 295 | 3.2 | 9.7 | 0.13 | 1.32 | 1.32 | 88 | 1008.1 |
| 20260505231937 | 8 | 331 | 4.8 | 11.3 | 0.13 | 1.32 | 1.32 | 88 | 1007.9 |
| 20260505231434 | 8 | 318 | 6.4 | 14.5 | 0.13 | 1.32 | 1.32 | 89 | 1008.0 |
| 20260505230932 | 9 | 314 | 14.5 | 14.5 | 0.13 | 1.30 | 1.30 | 89 | 1007.8 |
| 20260505230429 | 9 | 322 | 12.9 | 17.7 | 0.13 | 1.30 | 1.30 | 89 | 1007.7 |
| 20260505225925 | 9 | 331 | 6.4 | 11.3 | 0.13 | 1.27 | 1.27 | 89 | 1007.5 |
| 20260505225423 | 9 | 15 | 4.8 | 14.5 | 0.18 | 1.27 | 1.27 | 89 | 1007.5 |
| 20260505224918 | 9 | 347 | 4.8 | 16.1 | 0.23 | 1.27 | 1.27 | 89 | 1007.6 |
| 20260505224415 | 8 | 7 | 4.8 | 14.5 | 0.18 | 1.24 | 1.24 | 89 | 1007.6 |
| 20260505223912 | 9 | 332 | 11.3 | 14.5 | 0.13 | 1.22 | 1.22 | 89 | 1007.7 |
| 20260505223409 | 9 | 8 | 3.2 | 14.5 | 0.13 | 1.19 | 1.19 | 89 | 1007.8 |
| 20260505222906 | 9 | 359 | 3.2 | 8.0 | 0.18 | 1.19 | 1.19 | 88 | 1007.6 |
| 20260505222402 | 9 | 40 | 0.0 | 9.7 | 0.18 | 1.19 | 1.19 | 88 | 1007.5 |
| 20260505221858 | 9 | 5 | 1.6 | 6.4 | 0.13 | 1.17 | 1.17 | 88 | 1007.4 |
| 20260505221355 | 9 | 357 | 3.2 | 8.0 | 0.05 | 1.14 | 1.14 | 88 | 1007.6 |
| 20260505220853 | 9 | 26 | 1.6 | 6.4 | 0.05 | 1.14 | 1.14 | 88 | 1007.6 |
| 20260505220350 | 9 | 29 | 6.4 | 9.7 | 0.00 | 1.14 | 1.14 | 88 | 1007.3 |
| 20260505215847 | 9 | 4 | 4.8 | 6.4 | 0.05 | 1.14 | 1.14 | 88 | 1007.5 |
| 20260505215345 | 9 | 357 | 6.4 | 11.3 | 0.13 | 1.14 | 1.14 | 88 | 1007.5 |
| 20260505214843 | 9 | 3 | 4.8 | 11.3 | 0.05 | 1.12 | 1.12 | 88 | 1007.5 |
| 20260505214340 | 9 | 2 | 3.2 | 12.9 | 0.05 | 1.12 | 1.12 | 88 | 1007.6 |
| 20260505213837 | 10 | 328 | 12.9 | 16.1 | 0.18 | 1.09 | 1.09 | 88 | 1007.6 |
| 20260505213335 | 10 | 310 | 1.6 | 4.8 | 0.30 | 1.09 | 1.09 | 89 | 1007.6 |
| 20260505212831 | 10 | 280 | 4.8 | 8.0 | 0.30 | 1.07 | 1.07 | 88 | 1007.6 |
| 20260505212328 | 10 | 334 | 4.8 | 12.9 | 0.23 | 1.04 | 1.04 | 88 | 1007.6 |
| 20260505211824 | 10 | 313 | 6.4 | 11.3 | 0.30 | 1.02 | 1.02 | 88 | 1007.6 |
| 20260505211322 | 10 | 337 | 8.0 | 17.7 | 0.36 | 0.99 | 0.99 | 88 | 1007.4 |
| 20260505210818 | 10 | 307 | 8.0 | 11.3 | 0.53 | 0.97 | 0.97 | 89 | 1007.3 |
| 20260505210315 | 10 | 294 | 4.8 | 14.5 | 0.48 | 0.91 | 0.91 | 88 | 1007.3 |
| 20260505205812 | 10 | 321 | 8.0 | 12.9 | 0.43 | 0.89 | 0.89 | 88 | 1007.4 |
| 20260505205310 | 10 | 311 | 3.2 | 9.7 | 0.43 | 0.84 | 0.84 | 88 | 1007.2 |
| 20260505204807 | 10 | 311 | 4.8 | 12.9 | 0.48 | 0.81 | 0.81 | 87 | 1007.3 |
| 20260505204305 | 10 | 310 | 8.0 | 12.9 | 0.48 | 0.76 | 0.76 | 87 | 1007.1 |
| 20260505203802 | 10 | 13 | 4.8 | 12.9 | 0.43 | 0.71 | 0.71 | 87 | 1007.4 |
| 20260505203259 | 10 | 315 | 6.4 | 11.3 | 0.30 | 0.69 | 0.69 | 87 | 1007.3 |
| 20260505202754 | 10 | 313 | 8.0 | 17.7 | 0.18 | 0.66 | 0.66 | 86 | 1007.2 |
| 20260505202251 | 10 | 303 | 4.8 | 19.3 | 0.05 | 0.61 | 0.61 | 86 | 1007.1 |
| 20260505201747 | 10 | 309 | 8.0 | 16.1 | 0.18 | 0.61 | 0.61 | 86 | 1007.1 |
| 20260505201245 | 10 | 324 | 11.3 | 17.7 | 0.18 | 0.61 | 0.61 | 87 | 1007.2 |
| 20260505200743 | 10 | 333 | 17.7 | 24.1 | 0.13 | 0.58 | 0.58 | 86 | 1007.1 |
| 20260505200240 | 10 | 311 | 14.5 | 16.1 | 0.13 | 0.56 | 0.56 | 86 | 1006.9 |
| 20260505195735 | 10 | 309 | 3.2 | 24.1 | 0.13 | 0.56 | 0.56 | 86 | 1007.3 |
| 20260505195233 | 10 | 313 | 4.8 | 12.9 | 0.13 | 0.56 | 0.56 | 87 | 1007.4 |
| 20260505194730 | 10 | 313 | 8.0 | 17.7 | 0.05 | 0.53 | 0.53 | 86 | 1007.6 |
| 20260505194226 | 10 | 287 | 9.7 | 19.3 | 0.13 | 0.51 | 0.51 | 87 | 1007.7 |
| 20260505193722 | 10 | 306 | 4.8 | 16.1 | 0.23 | 0.51 | 0.51 | 87 | 1007.7 |
| 20260505193220 | 11 | 298 | 8.0 | 17.7 | 0.23 | 0.51 | 0.51 | 87 | 1007.8 |
| 20260505192718 | 11 | 306 | 6.4 | 12.9 | 0.18 | 0.46 | 0.46 | 87 | 1007.9 |
| 20260505192215 | 11 | 278 | 6.4 | 14.5 | 0.23 | 0.46 | 0.46 | 87 | 1008.1 |